Time,TemperatureF,DewpointF,PressureIn,WindDirection,WindDirectionDegrees,WindSpeedMPH,WindSpeedGustMPH,Humidity,HourlyPrecipIn,Conditions,Clouds,dailyrainin,SoftwareType,DateUTC
2013-01-13 00:04:00,36.9,33.3,30.06,North,0,4.7,6.7,87,0.03,,,0.00,WUHU216HW,2013-01-13 05:04:00,
2013-01-13 00:09:00,36.9,33.3,30.06,North,0,4.9,6.7,87,0.04,,,0.01,WUHU216HW,2013-01-13 05:09:00,
2013-01-13 00:14:00,36.7,33.1,30.06,North,0,3.4,7.6,87,0.04,,,0.01,WUHU216HW,2013-01-13 05:14:00,
2013-01-13 00:19:00,36.7,33.1,30.05,North,0,6.9,8.5,87,0.04,,,0.02,WUHU216HW,2013-01-13 05:19:00,
2013-01-13 00:24:00,36.5,33.3,30.03,North,0,5.8,9.8,88,0.04,,,0.02,WUHU216HW,2013-01-13 05:24:00,
2013-01-13 00:29:00,36.4,32.8,30.03,North,0,7.6,9.8,87,0.05,,,0.02,WUHU216HW,2013-01-13 05:29:00,
2013-01-13 00:34:00,36.4,32.8,30.02,North,0,13.0,13.0,87,0.05,,,0.03,WUHU216HW,2013-01-13 05:34:00,
2013-01-13 00:39:00,36.2,33.0,30.02,North,0,7.8,13.0,88,0.05,,,0.03,WUHU216HW,2013-01-13 05:39:00,
2013-01-13 00:44:00,36.2,33.0,30.02,North,0,8.3,10.3,88,0.04,,,0.03,WUHU216HW,2013-01-13 05:44:00,
2013-01-13 00:49:00,36.0,32.8,30.02,North,0,5.4,9.6,88,0.03,,,0.03,WUHU216HW,2013-01-13 05:49:00,
2013-01-13 00:54:00,36.0,33.0,30.02,North,0,5.1,9.6,89,0.03,,,0.03,WUHU216HW,2013-01-13 05:54:00,
2013-01-13 00:59:00,36.0,32.8,30.02,North,0,6.3,9.4,88,0.03,,,0.03,WUHU216HW,2013-01-13 05:59:00,
2013-01-13 01:04:00,35.8,32.6,30.01,North,0,13.4,13.4,88,0.02,,,0.03,WUHU216HW,2013-01-13 06:04:00,
2013-01-13 01:09:00,35.8,32.9,30.01,North,0,7.4,13.4,89,0.02,,,0.03,WUHU216HW,2013-01-13 06:09:00,
2013-01-13 01:14:00,35.6,32.7,30.01,North,0,3.8,12.1,89,0.02,,,0.03,WUHU216HW,2013-01-13 06:14:00,
2013-01-13 01:19:00,35.6,32.7,30.01,North,0,7.6,12.1,89,0.02,,,0.04,WUHU216HW,2013-01-13 06:19:00,
2013-01-13 01:24:00,35.6,32.7,30.01,North,0,10.1,10.7,89,0.02,,,0.04,WUHU216HW,2013-01-13 06:24:00,
2013-01-13 01:29:00,35.5,32.5,30.01,NNE,23,7.6,10.1,89,0.02,,,0.05,WUHU216HW,2013-01-13 06:29:00,
2013-01-13 01:34:00,35.5,32.5,30.01,North,0,10.7,10.7,89,0.02,,,0.05,WUHU216HW,2013-01-13 06:34:00,
2013-01-13 01:39:00,35.3,32.3,30.01,North,0,8.3,10.7,89,0.03,,,0.06,WUHU216HW,2013-01-13 06:39:00,
2013-01-13 01:44:00,35.3,32.6,30.01,North,0,8.5,11.2,90,0.03,,,0.06,WUHU216HW,2013-01-13 06:44:00,
2013-01-13 01:49:00,35.3,32.6,30.00,North,0,8.5,11.2,90,0.04,,,0.07,WUHU216HW,2013-01-13 06:49:00,
2013-01-13 01:54:00,35.1,32.4,30.00,NNE,23,10.1,11.4,90,0.04,,,0.07,WUHU216HW,2013-01-13 06:54:00,
2013-01-13 01:59:00,35.1,32.7,30.01,North,0,9.4,11.4,91,0.04,,,0.07,WUHU216HW,2013-01-13 06:59:00,
2013-01-13 02:04:00,35.1,32.7,30.01,North,0,6.3,10.5,91,0.05,,,0.07,WUHU216HW,2013-01-13 07:04:00,
2013-01-13 02:09:00,35.1,32.7,30.01,North,0,9.2,9.2,91,0.05,,,0.08,WUHU216HW,2013-01-13 07:09:00,
2013-01-13 02:14:00,35.1,32.7,30.01,North,0,4.7,9.2,91,0.05,,,0.09,WUHU216HW,2013-01-13 07:14:00,
2013-01-13 02:19:00,35.1,32.9,30.01,North,0,4.9,7.2,92,0.05,,,0.09,WUHU216HW,2013-01-13 07:19:00,
2013-01-13 02:25:00,35.1,32.9,30.01,North,0,4.9,6.7,92,0.05,,,0.09,WUHU216HW,2013-01-13 07:25:00,
2013-01-13 02:51:00,34.9,32.8,30.03,North,0,3.8,5.8,92,0.04,,,0.11,WUHU216HW,2013-01-13 07:51:00,
2013-01-13 02:56:00,34.9,32.8,30.03,North,0,4.3,7.6,92,0.05,,,0.12,WUHU216HW,2013-01-13 07:56:00,
2013-01-13 03:01:00,34.9,32.8,30.03,North,0,4.0,7.6,92,0.04,,,0.12,WUHU216HW,2013-01-13 08:01:00,
2013-01-13 03:06:00,34.9,32.8,30.03,NNW,338,4.0,6.3,92,0.05,,,0.13,WUHU216HW,2013-01-13 08:06:00,
2013-01-13 03:11:00,34.9,32.8,30.03,North,0,4.0,6.3,92,0.06,,,0.14,WUHU216HW,2013-01-13 08:11:00,
2013-01-13 03:16:00,34.7,32.6,30.03,North,0,4.0,5.8,92,0.05,,,0.14,WUHU216HW,2013-01-13 08:16:00,
2013-01-13 03:21:00,34.7,32.6,30.04,NNW,338,4.7,5.8,92,0.05,,,0.15,WUHU216HW,2013-01-13 08:21:00,
2013-01-13 03:26:00,34.7,32.9,30.06,NW,315,3.8,5.4,93,0.06,,,0.16,WUHU216HW,2013-01-13 08:26:00,
2013-01-13 03:31:00,34.7,32.9,30.06,NNW,338,2.5,5.4,93,0.07,,,0.17,WUHU216HW,2013-01-13 08:31:00,
2013-01-13 03:36:00,34.7,32.9,30.04,NNW,338,4.0,5.6,93,0.08,,,0.18,WUHU216HW,2013-01-13 08:36:00,
2013-01-13 03:41:00,34.6,32.7,30.05,NW,315,4.9,6.3,93,0.09,,,0.19,WUHU216HW,2013-01-13 08:41:00,
2013-01-13 03:46:00,34.4,32.5,30.05,NNW,338,2.0,6.3,93,0.09,,,0.20,WUHU216HW,2013-01-13 08:46:00,
2013-01-13 03:51:00,34.2,32.3,30.04,North,0,3.4,5.6,93,0.09,,,0.20,WUHU216HW,2013-01-13 08:51:00,
2013-01-13 03:56:00,34.2,32.3,30.04,NNW,338,2.9,4.0,93,0.08,,,0.20,WUHU216HW,2013-01-13 08:56:00,
2013-01-13 04:01:00,34.2,32.3,30.04,NNW,338,2.9,4.9,93,0.07,,,0.20,WUHU216HW,2013-01-13 09:01:00,
2013-01-13 04:06:00,34.2,32.3,30.03,North,0,6.3,6.3,93,0.08,,,0.21,WUHU216HW,2013-01-13 09:06:00,
2013-01-13 04:11:00,34.2,32.3,30.01,North,0,8.5,10.5,93,0.07,,,0.21,WUHU216HW,2013-01-13 09:11:00,
2013-01-13 04:16:00,34.0,32.1,30.01,North,0,6.3,10.5,93,0.06,,,0.21,WUHU216HW,2013-01-13 09:16:00,
2013-01-13 04:21:00,34.0,32.4,30.00,North,0,9.6,9.6,94,0.06,,,0.21,WUHU216HW,2013-01-13 09:21:00,
2013-01-13 04:26:00,34.0,32.4,30.01,North,0,3.4,9.6,94,0.05,,,0.21,WUHU216HW,2013-01-13 09:26:00,
2013-01-13 04:31:00,34.0,32.4,30.01,North,0,4.5,7.8,94,0.04,,,0.21,WUHU216HW,2013-01-13 09:31:00,
2013-01-13 04:36:00,34.0,32.4,30.00,North,0,8.5,9.6,94,0.02,,,0.21,WUHU216HW,2013-01-13 09:36:00,
2013-01-13 04:41:00,34.0,32.4,30.01,North,0,4.5,9.6,94,0.01,,,0.21,WUHU216HW,2013-01-13 09:41:00,
2013-01-13 04:46:00,34.0,32.4,30.01,North,0,4.0,6.9,94,0.01,,,0.21,WUHU216HW,2013-01-13 09:46:00,
2013-01-13 04:51:00,34.0,32.4,30.00,North,0,2.7,6.3,94,0.01,,,0.21,WUHU216HW,2013-01-13 09:51:00,
2013-01-13 04:56:00,34.0,32.4,30.01,North,0,1.6,6.3,94,0.01,,,0.21,WUHU216HW,2013-01-13 09:56:00,
2013-01-13 05:01:00,34.0,32.4,30.01,North,0,1.6,3.1,94,0.00,,,0.21,WUHU216HW,2013-01-13 10:01:00,
2013-01-13 05:06:00,34.0,32.4,30.00,North,0,5.4,5.4,94,0.00,,,0.21,WUHU216HW,2013-01-13 10:06:00,
2013-01-13 05:11:00,34.0,32.4,30.00,North,0,4.7,5.4,94,0.00,,,0.21,WUHU216HW,2013-01-13 10:11:00,
2013-01-13 05:16:00,34.0,32.4,29.99,North,0,2.5,5.4,94,0.00,,,0.21,WUHU216HW,2013-01-13 10:16:00,
2013-01-13 05:21:00,34.0,32.4,29.99,North,0,3.1,5.4,94,0.00,,,0.21,WUHU216HW,2013-01-13 10:21:00,
2013-01-13 05:26:00,34.0,32.4,29.99,North,0,1.8,3.1,94,0.00,,,0.21,WUHU216HW,2013-01-13 10:26:00,
2013-01-13 05:31:00,34.0,32.4,29.98,North,0,2.0,3.4,94,0.00,,,0.21,WUHU216HW,2013-01-13 10:31:00,
2013-01-13 05:36:00,34.0,32.4,30.01,West,270,4.9,4.9,94,0.00,,,0.21,WUHU216HW,2013-01-13 10:36:00,
2013-01-13 05:41:00,34.2,32.6,30.01,NNW,338,1.3,4.9,94,0.00,,,0.21,WUHU216HW,2013-01-13 10:41:00,
2013-01-13 05:46:00,34.0,32.4,29.98,North,0,2.0,4.9,94,0.00,,,0.21,WUHU216HW,2013-01-13 10:46:00,
2013-01-13 05:51:00,34.0,32.4,29.98,NNW,338,1.1,3.4,94,0.00,,,0.21,WUHU216HW,2013-01-13 10:51:00,
2013-01-13 05:56:00,34.0,32.4,29.99,NW,315,3.4,3.4,94,0.00,,,0.21,WUHU216HW,2013-01-13 10:56:00,
2013-01-13 06:01:00,34.0,32.4,29.99,WNW,293,2.7,3.4,94,0.00,,,0.21,WUHU216HW,2013-01-13 11:01:00,
2013-01-13 06:06:00,34.0,32.4,30.00,NW,315,4.0,4.3,94,0.00,,,0.21,WUHU216HW,2013-01-13 11:06:00,
2013-01-13 06:11:00,34.0,32.4,30.00,NW,315,4.0,4.3,94,0.00,,,0.21,WUHU216HW,2013-01-13 11:11:00,
2013-01-13 06:16:00,34.0,32.4,30.01,NW,315,3.4,4.9,94,0.00,,,0.21,WUHU216HW,2013-01-13 11:16:00,
2013-01-13 06:21:00,34.0,32.4,30.00,NNW,338,2.5,4.9,94,0.00,,,0.21,WUHU216HW,2013-01-13 11:21:00,
2013-01-13 06:26:00,33.8,32.2,29.99,NW,315,2.5,4.3,94,0.00,,,0.21,WUHU216HW,2013-01-13 11:26:00,
2013-01-13 06:31:00,33.8,32.2,29.99,North,0,1.8,3.6,94,0.00,,,0.21,WUHU216HW,2013-01-13 11:31:00,
2013-01-13 06:36:00,33.8,32.2,29.99,NNW,338,2.5,3.6,94,0.00,,,0.21,WUHU216HW,2013-01-13 11:36:00,
2013-01-13 06:41:00,33.8,32.2,29.99,NNW,338,2.9,3.6,94,0.00,,,0.21,WUHU216HW,2013-01-13 11:41:00,
2013-01-13 06:46:00,33.8,32.2,29.99,North,0,2.9,3.4,94,0.00,,,0.21,WUHU216HW,2013-01-13 11:46:00,
2013-01-13 06:51:00,33.8,32.2,29.99,NNW,338,2.2,4.0,94,0.00,,,0.21,WUHU216HW,2013-01-13 11:51:00,
2013-01-13 06:56:00,33.8,32.2,29.99,North,0,2.9,5.1,94,0.00,,,0.21,WUHU216HW,2013-01-13 11:56:00,
2013-01-13 07:01:00,33.8,32.2,30.00,WNW,293,4.3,5.1,94,0.00,,,0.21,WUHU216HW,2013-01-13 12:01:00,
2013-01-13 07:06:00,33.8,32.2,30.00,NNW,338,2.7,5.4,94,0.00,,,0.21,WUHU216HW,2013-01-13 12:06:00,
2013-01-13 07:11:00,33.8,32.2,30.01,West,270,4.7,6.5,94,0.00,,,0.21,WUHU216HW,2013-01-13 12:11:00,
2013-01-13 07:16:00,33.8,32.2,30.03,WSW,248,6.5,6.5,94,0.00,,,0.21,WUHU216HW,2013-01-13 12:16:00,
2013-01-13 07:21:00,33.8,32.2,30.03,WNW,293,6.9,8.9,94,0.00,,,0.21,WUHU216HW,2013-01-13 12:21:00,
2013-01-13 07:26:00,33.8,32.2,30.04,WNW,293,8.5,8.9,94,0.00,,,0.21,WUHU216HW,2013-01-13 12:26:00,
2013-01-13 07:31:00,33.8,32.2,30.04,WNW,293,8.5,8.7,94,0.00,,,0.21,WUHU216HW,2013-01-13 12:31:00,
2013-01-13 07:36:00,33.8,32.2,30.04,WNW,293,8.5,8.5,94,0.00,,,0.21,WUHU216HW,2013-01-13 12:36:00,
2013-01-13 08:02:00,33.5,31.6,30.06,WNW,293,8.3,11.4,93,0.00,,,0.21,WUHU216HW,2013-01-13 13:02:00,
2013-01-13 08:07:00,33.5,31.6,30.06,West,270,11.0,13.9,93,0.00,,,0.21,WUHU216HW,2013-01-13 13:07:00,
2013-01-13 08:12:00,33.5,31.6,30.06,WNW,293,7.6,13.9,93,0.00,,,0.21,WUHU216HW,2013-01-13 13:12:00,
2013-01-13 08:17:00,33.5,31.6,30.06,WNW,293,10.3,13.2,93,0.00,,,0.21,WUHU216HW,2013-01-13 13:17:00,
2013-01-13 08:22:00,33.5,31.6,30.06,WNW,293,8.7,13.2,93,0.00,,,0.21,WUHU216HW,2013-01-13 13:22:00,
2013-01-13 08:27:00,33.5,31.6,30.06,WNW,293,8.9,9.6,93,0.00,,,0.21,WUHU216HW,2013-01-13 13:27:00,
2013-01-13 08:32:00,33.5,31.6,30.06,NW,315,6.9,8.9,93,0.00,,,0.21,WUHU216HW,2013-01-13 13:32:00,
2013-01-13 08:37:00,33.5,31.6,30.05,WNW,293,5.1,7.4,93,0.00,,,0.21,WUHU216HW,2013-01-13 13:37:00,
2013-01-13 08:42:00,33.5,31.9,30.06,WNW,293,8.1,8.1,94,0.00,,,0.21,WUHU216HW,2013-01-13 13:42:00,
2013-01-13 08:47:00,33.5,31.6,30.06,NW,315,7.2,8.5,93,0.00,,,0.21,WUHU216HW,2013-01-13 13:47:00,
2013-01-13 08:52:00,33.5,31.6,30.05,NW,315,6.9,8.5,93,0.00,,,0.21,WUHU216HW,2013-01-13 13:52:00,
2013-01-13 08:57:00,33.5,31.6,30.05,NW,315,6.9,6.9,93,0.00,,,0.21,WUHU216HW,2013-01-13 13:57:00,
2013-01-13 09:05:00,33.5,31.9,30.06,WNW,293,6.3,8.1,94,0.01,,,0.21,WUHU216HW,2013-01-13 14:05:00,
2013-01-13 09:10:00,33.7,32.3,30.07,WNW,293,6.7,8.1,95,0.01,,,0.22,WUHU216HW,2013-01-13 14:10:00,
2013-01-13 09:15:00,33.7,32.3,30.06,NW,315,6.9,7.8,95,0.01,,,0.22,WUHU216HW,2013-01-13 14:15:00,
2013-01-13 09:20:00,33.7,32.3,30.06,NW,315,6.3,6.9,95,0.01,,,0.22,WUHU216HW,2013-01-13 14:20:00,
2013-01-13 09:25:00,33.8,32.5,30.07,WNW,293,6.3,7.4,95,0.01,,,0.22,WUHU216HW,2013-01-13 14:25:00,
2013-01-13 09:30:00,33.7,32.3,30.08,West,270,6.3,7.4,95,0.01,,,0.22,WUHU216HW,2013-01-13 14:30:00,
2013-01-13 09:35:00,33.8,32.5,30.08,WNW,293,6.9,7.2,95,0.01,,,0.22,WUHU216HW,2013-01-13 14:35:00,
2013-01-13 09:40:00,33.8,32.5,30.08,West,270,9.2,9.2,95,0.01,,,0.22,WUHU216HW,2013-01-13 14:40:00,
2013-01-13 09:45:00,33.7,32.0,30.09,NW,315,12.1,13.0,94,0.01,,,0.22,WUHU216HW,2013-01-13 14:45:00,
2013-01-13 09:50:00,33.1,31.3,30.09,NW,315,10.5,13.6,93,0.01,,,0.22,WUHU216HW,2013-01-13 14:50:00,
2013-01-13 09:55:00,32.8,31.0,30.09,NW,315,15.0,15.0,93,0.01,,,0.22,WUHU216HW,2013-01-13 14:55:00,
2013-01-13 10:00:00,32.8,31.0,30.09,NW,315,8.5,15.0,93,0.01,,,0.22,WUHU216HW,2013-01-13 15:00:00,
2013-01-13 10:05:00,32.6,30.8,30.09,NW,315,11.0,13.6,93,0.00,,,0.22,WUHU216HW,2013-01-13 15:05:00,
2013-01-13 10:10:00,32.6,30.8,30.08,NW,315,3.8,12.3,93,0.00,,,0.22,WUHU216HW,2013-01-13 15:10:00,
2013-01-13 10:15:00,32.6,30.8,30.09,WNW,293,10.7,10.7,93,0.00,,,0.22,WUHU216HW,2013-01-13 15:15:00,
2013-01-13 10:20:00,32.6,31.1,30.09,NW,315,11.6,11.6,94,0.00,,,0.22,WUHU216HW,2013-01-13 15:20:00,
2013-01-13 10:25:00,32.2,30.4,30.09,NW,315,11.4,12.8,93,0.00,,,0.22,WUHU216HW,2013-01-13 15:25:00,
2013-01-13 10:30:00,32.0,30.2,30.10,NNW,338,11.4,12.8,93,0.00,,,0.22,WUHU216HW,2013-01-13 15:30:00,
2013-01-13 10:35:00,32.0,30.2,30.09,WNW,293,10.5,11.6,93,0.00,,,0.22,WUHU216HW,2013-01-13 15:35:00,
2013-01-13 10:40:00,32.0,30.1,30.09,WNW,293,12.8,13.6,92,0.00,,,0.22,WUHU216HW,2013-01-13 15:40:00,
2013-01-13 10:45:00,31.7,29.7,30.09,WNW,293,8.1,13.6,92,0.00,,,0.22,WUHU216HW,2013-01-13 15:45:00,
2013-01-13 10:50:00,31.7,29.7,30.12,WNW,293,9.4,12.8,92,0.00,,,0.22,WUHU216HW,2013-01-13 15:50:00,
2013-01-13 10:55:00,31.7,29.7,30.12,WNW,293,12.1,12.1,92,0.00,,,0.22,WUHU216HW,2013-01-13 15:55:00,
2013-01-13 11:00:00,31.7,29.9,30.12,WNW,293,9.4,12.1,93,0.00,,,0.22,WUHU216HW,2013-01-13 16:00:00,
2013-01-13 11:05:00,31.5,29.7,30.11,WNW,293,11.2,11.6,93,0.00,,,0.22,WUHU216HW,2013-01-13 16:05:00,
2013-01-13 11:10:00,31.3,29.5,30.11,WNW,293,11.0,13.0,93,0.00,,,0.22,WUHU216HW,2013-01-13 16:10:00,
2013-01-13 11:15:00,31.3,29.5,30.10,WNW,293,7.6,13.0,93,0.00,,,0.22,WUHU216HW,2013-01-13 16:15:00,
2013-01-13 11:20:00,31.3,29.4,30.09,WNW,293,6.9,12.1,92,0.00,,,0.22,WUHU216HW,2013-01-13 16:20:00,
2013-01-13 11:25:00,31.3,29.4,30.05,WNW,293,11.2,12.1,92,0.00,,,0.22,WUHU216HW,2013-01-13 16:25:00,
2013-01-13 11:30:00,31.5,29.3,30.06,WNW,293,8.7,11.2,91,0.00,,,0.22,WUHU216HW,2013-01-13 16:30:00,
2013-01-13 11:35:00,31.7,29.7,30.06,WNW,293,6.3,10.7,92,0.00,,,0.22,WUHU216HW,2013-01-13 16:35:00,
2013-01-13 11:40:00,31.5,29.3,30.07,WNW,293,6.5,10.7,91,0.00,,,0.22,WUHU216HW,2013-01-13 16:40:00,
2013-01-13 11:45:00,31.7,29.4,30.08,WNW,293,7.6,10.3,91,0.00,,,0.22,WUHU216HW,2013-01-13 16:45:00,
2013-01-13 11:50:00,31.5,29.3,30.08,WNW,293,6.5,10.7,91,0.00,,,0.22,WUHU216HW,2013-01-13 16:50:00,
2013-01-13 11:55:00,31.3,29.1,30.09,WNW,293,7.4,10.7,91,0.00,,,0.22,WUHU216HW,2013-01-13 16:55:00,
2013-01-13 12:00:00,31.5,29.5,30.11,WNW,293,10.5,10.5,92,0.00,,,0.22,WUHU216HW,2013-01-13 17:00:00,
2013-01-13 12:05:00,31.3,29.1,30.11,WNW,293,4.9,10.5,91,0.00,,,0.22,WUHU216HW,2013-01-13 17:05:00,
2013-01-13 12:10:00,31.3,29.1,30.11,WNW,293,8.1,8.1,91,0.00,,,0.22,WUHU216HW,2013-01-13 17:10:00,
2013-01-13 12:15:00,31.3,29.1,30.10,WNW,293,9.6,9.6,91,0.00,,,0.22,WUHU216HW,2013-01-13 17:15:00,
2013-01-13 12:20:00,31.3,29.1,30.10,WNW,293,7.6,9.6,91,0.00,,,0.22,WUHU216HW,2013-01-13 17:20:00,
2013-01-13 12:25:00,31.3,29.1,30.10,WNW,293,6.5,8.7,91,0.00,,,0.22,WUHU216HW,2013-01-13 17:25:00,
2013-01-13 12:30:00,31.3,29.1,30.10,WNW,293,6.5,7.4,91,0.00,,,0.22,WUHU216HW,2013-01-13 17:30:00,
2013-01-13 12:58:00,31.3,29.4,30.08,WNW,293,9.8,9.8,92,0.00,,,0.22,WUHU216HW,2013-01-13 17:58:00,
2013-01-13 13:03:00,31.1,29.2,30.08,WNW,293,12.1,13.9,92,0.00,,,0.22,WUHU216HW,2013-01-13 18:03:00,
2013-01-13 13:08:00,31.0,29.0,30.08,WNW,293,10.7,14.3,92,0.00,,,0.22,WUHU216HW,2013-01-13 18:08:00,
2013-01-13 13:13:00,31.0,29.2,30.08,WNW,293,6.3,14.3,93,0.00,,,0.22,WUHU216HW,2013-01-13 18:13:00,
2013-01-13 13:18:00,31.0,29.2,30.06,WNW,293,9.6,10.5,93,0.00,,,0.22,WUHU216HW,2013-01-13 18:18:00,
2013-01-13 13:23:00,31.0,29.0,30.07,WNW,293,8.7,12.5,92,0.00,,,0.22,WUHU216HW,2013-01-13 18:23:00,
2013-01-13 13:28:00,31.0,29.2,30.05,WNW,293,5.4,12.5,93,0.00,,,0.22,WUHU216HW,2013-01-13 18:28:00,
2013-01-13 13:33:00,30.8,28.5,30.06,WNW,293,8.9,10.5,91,0.00,,,0.22,WUHU216HW,2013-01-13 18:33:00,
2013-01-13 13:38:00,31.0,29.0,30.07,WNW,293,10.7,11.4,92,0.00,,,0.22,WUHU216HW,2013-01-13 18:38:00,
2013-01-13 13:43:00,31.0,28.7,30.06,WNW,293,7.8,11.4,91,0.00,,,0.22,WUHU216HW,2013-01-13 18:43:00,
2013-01-13 13:48:00,30.8,28.5,30.06,WNW,293,5.8,9.2,91,0.00,,,0.22,WUHU216HW,2013-01-13 18:48:00,
2013-01-13 13:53:00,30.8,28.5,30.06,WNW,293,6.9,10.5,91,0.00,,,0.22,WUHU216HW,2013-01-13 18:53:00,
2013-01-13 13:58:00,30.6,28.4,30.07,WNW,293,8.1,10.5,91,0.00,,,0.22,WUHU216HW,2013-01-13 18:58:00,
2013-01-13 14:03:00,30.6,28.4,30.09,WNW,293,10.1,11.9,91,0.00,,,0.22,WUHU216HW,2013-01-13 19:03:00,
2013-01-13 14:08:00,30.8,28.5,30.09,WNW,293,10.3,13.4,91,0.00,,,0.22,WUHU216HW,2013-01-13 19:08:00,
2013-01-13 14:13:00,30.8,28.5,30.08,WNW,293,9.2,13.4,91,0.00,,,0.22,WUHU216HW,2013-01-13 19:13:00,
2013-01-13 14:18:00,31.0,29.0,30.08,WNW,293,7.4,9.8,92,0.00,,,0.22,WUHU216HW,2013-01-13 19:18:00,
2013-01-13 14:23:00,30.8,28.8,30.09,WNW,293,9.2,11.0,92,0.00,,,0.22,WUHU216HW,2013-01-13 19:23:00,
2013-01-13 14:28:00,30.6,28.4,30.09,WNW,293,6.3,11.0,91,0.00,,,0.22,WUHU216HW,2013-01-13 19:28:00,
2013-01-13 14:33:00,30.8,28.8,30.10,WNW,293,9.2,9.2,92,0.00,,,0.22,WUHU216HW,2013-01-13 19:33:00,
2013-01-13 14:38:00,31.0,28.7,30.11,WNW,293,10.1,12.1,91,0.00,,,0.22,WUHU216HW,2013-01-13 19:38:00,
2013-01-13 14:43:00,31.0,28.7,30.12,WNW,293,9.6,13.0,91,0.00,,,0.22,WUHU216HW,2013-01-13 19:43:00,
2013-01-13 14:48:00,31.0,28.7,30.11,WNW,293,10.1,13.0,91,0.00,,,0.22,WUHU216HW,2013-01-13 19:48:00,
2013-01-13 14:53:00,31.0,28.7,30.11,WNW,293,12.8,12.8,91,0.00,,,0.22,WUHU216HW,2013-01-13 19:53:00,
2013-01-13 14:58:00,30.8,28.5,30.10,WNW,293,10.7,12.8,91,0.00,,,0.22,WUHU216HW,2013-01-13 19:58:00,
2013-01-13 15:03:00,30.8,28.5,30.10,WNW,293,12.8,13.4,91,0.00,,,0.22,WUHU216HW,2013-01-13 20:03:00,
2013-01-13 15:08:00,30.6,28.4,30.09,WNW,293,13.2,13.4,91,0.00,,,0.22,WUHU216HW,2013-01-13 20:08:00,
2013-01-13 15:13:00,30.6,28.4,30.08,WNW,293,11.9,13.2,91,0.00,,,0.22,WUHU216HW,2013-01-13 20:13:00,
2013-01-13 15:18:00,30.6,28.4,30.08,WNW,293,9.6,11.9,91,0.00,,,0.22,WUHU216HW,2013-01-13 20:18:00,
2013-01-13 15:23:00,30.6,28.1,30.06,WNW,293,13.4,13.4,90,0.00,,,0.22,WUHU216HW,2013-01-13 20:23:00,
2013-01-13 15:28:00,30.6,28.4,30.07,WNW,293,13.0,13.4,91,0.00,,,0.22,WUHU216HW,2013-01-13 20:28:00,
2013-01-13 15:33:00,30.6,28.4,30.07,WNW,293,14.5,14.5,91,0.00,,,0.22,WUHU216HW,2013-01-13 20:33:00,
2013-01-13 15:38:00,30.2,28.0,30.07,WNW,293,14.1,14.5,91,0.00,,,0.22,WUHU216HW,2013-01-13 20:38:00,
2013-01-13 15:43:00,30.2,28.0,30.08,WNW,293,9.2,14.1,91,0.00,,,0.22,WUHU216HW,2013-01-13 20:43:00,
2013-01-13 15:48:00,30.1,27.8,30.09,WNW,293,9.4,13.0,91,0.00,,,0.22,WUHU216HW,2013-01-13 20:48:00,
2013-01-13 15:53:00,30.1,27.8,30.10,WNW,293,8.5,12.8,91,0.00,,,0.22,WUHU216HW,2013-01-13 20:53:00,
2013-01-13 15:58:00,29.9,27.1,30.11,WNW,293,10.5,12.8,89,0.00,,,0.22,WUHU216HW,2013-01-13 20:58:00,
2013-01-13 16:03:00,29.9,27.1,30.10,WNW,293,10.3,10.7,89,0.00,,,0.22,WUHU216HW,2013-01-13 21:03:00,
2013-01-13 16:08:00,29.9,27.4,30.10,WNW,293,8.9,10.7,90,0.00,,,0.22,WUHU216HW,2013-01-13 21:08:00,
2013-01-13 16:13:00,29.9,27.4,30.11,WNW,293,7.2,10.1,90,0.00,,,0.22,WUHU216HW,2013-01-13 21:13:00,
2013-01-13 16:18:00,29.9,27.4,30.11,WNW,293,5.1,8.5,90,0.00,,,0.22,WUHU216HW,2013-01-13 21:18:00,
2013-01-13 16:24:00,29.7,27.2,30.11,WNW,293,4.7,8.5,90,0.00,,,0.22,WUHU216HW,2013-01-13 21:24:00,
2013-01-13 16:29:00,29.7,27.2,30.11,WNW,293,5.4,6.9,90,0.00,,,0.22,WUHU216HW,2013-01-13 21:29:00,
2013-01-13 16:34:00,29.7,27.2,30.11,WNW,293,5.4,5.4,90,0.00,,,0.22,WUHU216HW,2013-01-13 21:34:00,
2013-01-13 16:59:00,29.3,26.3,30.11,WNW,293,8.9,8.9,88,0.00,,,0.22,WUHU216HW,2013-01-13 21:59:00,
2013-01-13 17:04:00,29.5,26.7,30.11,WNW,293,6.3,8.9,89,0.00,,,0.22,WUHU216HW,2013-01-13 22:04:00,
2013-01-13 17:09:00,29.5,26.7,30.09,WNW,293,6.9,8.3,89,0.00,,,0.22,WUHU216HW,2013-01-13 22:09:00,
2013-01-13 17:14:00,29.5,26.7,30.10,WNW,293,8.1,10.1,89,0.00,,,0.22,WUHU216HW,2013-01-13 22:14:00,
2013-01-13 17:19:00,29.5,26.7,30.11,WNW,293,7.2,10.1,89,0.00,,,0.22,WUHU216HW,2013-01-13 22:19:00,
2013-01-13 17:24:00,29.3,26.6,30.12,WNW,293,10.3,11.6,89,0.00,,,0.22,WUHU216HW,2013-01-13 22:24:00,
2013-01-13 17:29:00,29.2,26.1,30.12,WNW,293,11.4,11.6,88,0.00,,,0.22,WUHU216HW,2013-01-13 22:29:00,
2013-01-13 17:34:00,29.2,26.4,30.13,WNW,293,9.4,11.4,89,0.00,,,0.22,WUHU216HW,2013-01-13 22:34:00,
2013-01-13 17:39:00,29.2,26.1,30.12,WNW,293,10.1,12.3,88,0.00,,,0.22,WUHU216HW,2013-01-13 22:39:00,
2013-01-13 17:44:00,29.0,25.9,30.12,WNW,293,12.3,13.4,88,0.00,,,0.22,WUHU216HW,2013-01-13 22:44:00,
2013-01-13 17:49:00,29.0,25.9,30.12,WNW,293,8.5,13.4,88,0.00,,,0.22,WUHU216HW,2013-01-13 22:49:00,
2013-01-13 17:54:00,29.0,25.9,30.12,WNW,293,9.8,11.4,88,0.00,,,0.22,WUHU216HW,2013-01-13 22:54:00,
2013-01-13 17:59:00,29.0,25.6,30.13,WNW,293,12.1,13.4,87,0.00,,,0.22,WUHU216HW,2013-01-13 22:59:00,
2013-01-13 18:04:00,29.0,25.9,30.13,WNW,293,11.2,13.4,88,0.00,,,0.22,WUHU216HW,2013-01-13 23:04:00,
2013-01-13 18:09:00,28.8,25.8,30.13,WNW,293,13.0,15.2,88,0.00,,,0.22,WUHU216HW,2013-01-13 23:09:00,
2013-01-13 18:14:00,28.8,25.1,30.13,WNW,293,12.8,15.2,86,0.00,,,0.22,WUHU216HW,2013-01-13 23:14:00,
2013-01-13 18:19:00,28.6,25.2,30.13,WNW,293,14.3,14.3,87,0.00,,,0.22,WUHU216HW,2013-01-13 23:19:00,
2013-01-13 18:24:00,28.8,25.4,30.13,WNW,293,11.4,14.3,87,0.00,,,0.22,WUHU216HW,2013-01-13 23:24:00,
2013-01-13 18:29:00,28.4,24.8,30.14,WNW,293,18.1,18.1,86,0.00,,,0.22,WUHU216HW,2013-01-13 23:29:00,
2013-01-13 18:34:00,28.4,24.8,30.14,WNW,293,13.4,18.1,86,0.00,,,0.22,WUHU216HW,2013-01-13 23:34:00,
2013-01-13 18:39:00,28.3,24.6,30.15,WNW,293,13.9,17.2,86,0.00,,,0.22,WUHU216HW,2013-01-13 23:39:00,
2013-01-13 18:44:00,28.4,24.8,30.16,WNW,293,11.4,17.2,86,0.00,,,0.22,WUHU216HW,2013-01-13 23:44:00,
2013-01-13 18:49:00,28.4,24.8,30.16,WNW,293,10.7,14.3,86,0.00,,,0.22,WUHU216HW,2013-01-13 23:49:00,
2013-01-13 18:54:00,28.4,24.8,30.16,WNW,293,10.5,14.3,86,0.00,,,0.22,WUHU216HW,2013-01-13 23:54:00,
2013-01-13 18:59:00,28.4,24.8,30.16,WNW,293,11.0,15.9,86,0.00,,,0.22,WUHU216HW,2013-01-13 23:59:00,
2013-01-13 19:04:00,28.4,24.8,30.16,WNW,293,16.3,16.3,86,0.00,,,0.22,WUHU216HW,2013-01-14 00:04:00,
2013-01-13 19:09:00,28.3,24.6,30.16,WNW,293,13.0,16.3,86,0.00,,,0.22,WUHU216HW,2013-01-14 00:09:00,
2013-01-13 19:14:00,28.1,23.9,30.17,WNW,293,16.3,16.3,84,0.00,,,0.22,WUHU216HW,2013-01-14 00:14:00,
2013-01-13 19:19:00,28.1,23.9,30.17,WNW,293,15.9,19.0,84,0.00,,,0.22,WUHU216HW,2013-01-14 00:19:00,
2013-01-13 19:24:00,28.1,23.9,30.17,WNW,293,15.7,19.2,84,0.00,,,0.22,WUHU216HW,2013-01-14 00:24:00,
2013-01-13 19:29:00,28.1,23.9,30.17,WNW,293,12.1,19.2,84,0.00,,,0.22,WUHU216HW,2013-01-14 00:29:00,
2013-01-13 19:34:00,28.1,23.9,30.18,WNW,293,16.1,17.2,84,0.00,,,0.22,WUHU216HW,2013-01-14 00:34:00,
2013-01-13 19:39:00,27.9,23.4,30.18,WNW,293,15.9,18.8,83,0.00,,,0.22,WUHU216HW,2013-01-14 00:39:00,
2013-01-13 19:44:00,27.9,23.4,30.19,WNW,293,18.1,18.8,83,0.00,,,0.22,WUHU216HW,2013-01-14 00:44:00,
2013-01-13 19:49:00,27.7,23.2,30.18,WNW,293,15.7,18.8,83,0.00,,,0.22,WUHU216HW,2013-01-14 00:49:00,
2013-01-13 19:54:00,27.7,23.2,30.18,WNW,293,14.3,17.4,83,0.00,,,0.22,WUHU216HW,2013-01-14 00:54:00,
2013-01-13 19:59:00,27.7,23.2,30.18,WNW,293,11.2,17.2,83,0.00,,,0.22,WUHU216HW,2013-01-14 00:59:00,
2013-01-13 20:04:00,27.7,23.2,30.18,WNW,293,10.5,15.7,83,0.00,,,0.22,WUHU216HW,2013-01-14 01:04:00,
2013-01-13 20:09:00,27.7,23.2,30.18,WNW,293,12.1,15.4,83,0.00,,,0.22,WUHU216HW,2013-01-14 01:09:00,
2013-01-13 20:14:00,27.7,23.2,30.18,WNW,293,14.1,15.4,83,0.00,,,0.22,WUHU216HW,2013-01-14 01:14:00,
2013-01-13 20:19:00,27.7,23.2,30.18,WNW,293,16.1,16.1,83,0.00,,,0.22,WUHU216HW,2013-01-14 01:19:00,
2013-01-13 20:24:00,27.7,23.2,30.18,WNW,293,17.2,18.1,83,0.00,,,0.22,WUHU216HW,2013-01-14 01:24:00,
2013-01-13 20:29:00,27.5,23.1,30.19,WNW,293,16.6,18.1,83,0.00,,,0.22,WUHU216HW,2013-01-14 01:29:00,
2013-01-13 20:35:00,27.5,23.3,30.19,WNW,293,15.9,17.9,84,0.00,,,0.22,WUHU216HW,2013-01-14 01:35:00,
2013-01-13 20:40:00,27.5,23.1,30.19,WNW,293,11.6,17.9,83,0.00,,,0.22,WUHU216HW,2013-01-14 01:40:00,
2013-01-13 20:45:00,27.4,22.9,30.19,WNW,293,18.6,18.8,83,0.00,,,0.22,WUHU216HW,2013-01-14 01:45:00,
2013-01-13 20:50:00,27.4,22.9,30.19,WNW,293,16.3,20.4,83,0.00,,,0.22,WUHU216HW,2013-01-14 01:50:00,
2013-01-13 20:55:00,27.2,22.7,30.19,WNW,293,21.3,21.3,83,0.00,,,0.22,WUHU216HW,2013-01-14 01:55:00,
2013-01-13 21:00:00,27.2,22.7,30.19,WNW,293,19.2,21.3,83,0.00,,,0.22,WUHU216HW,2013-01-14 02:00:00,
2013-01-13 21:05:00,27.0,22.5,30.20,WNW,293,13.4,20.8,83,0.00,,,0.22,WUHU216HW,2013-01-14 02:05:00,
2013-01-13 21:10:00,27.0,22.5,30.20,WNW,293,11.6,20.1,83,0.00,,,0.22,WUHU216HW,2013-01-14 02:10:00,
2013-01-13 21:15:00,27.0,22.1,30.20,WNW,293,15.4,19.5,82,0.00,,,0.22,WUHU216HW,2013-01-14 02:15:00,
2013-01-13 21:20:00,27.0,22.5,30.21,WNW,293,19.2,19.2,83,0.00,,,0.22,WUHU216HW,2013-01-14 02:20:00,
2013-01-13 21:25:00,27.0,22.5,30.21,WNW,293,16.1,19.7,83,0.00,,,0.22,WUHU216HW,2013-01-14 02:25:00,
2013-01-13 21:30:00,27.0,22.5,30.21,WNW,293,16.1,19.7,83,0.00,,,0.22,WUHU216HW,2013-01-14 02:30:00,
2013-01-13 22:00:00,26.5,22.0,30.22,WNW,293,15.0,16.1,83,0.00,,,0.22,WUHU216HW,2013-01-14 03:00:00,
2013-01-13 22:05:00,26.3,21.8,30.22,WNW,293,17.0,17.0,83,0.00,,,0.22,WUHU216HW,2013-01-14 03:05:00,
2013-01-13 22:10:00,26.5,22.0,30.22,WNW,293,13.6,17.0,83,0.00,,,0.22,WUHU216HW,2013-01-14 03:10:00,
2013-01-13 22:15:00,26.3,21.8,30.23,WNW,293,15.9,15.9,83,0.00,,,0.22,WUHU216HW,2013-01-14 03:15:00,
2013-01-13 22:20:00,26.3,21.8,30.23,WNW,293,11.6,19.5,83,0.00,,,0.22,WUHU216HW,2013-01-14 03:20:00,
2013-01-13 22:25:00,26.1,21.6,30.23,WNW,293,12.8,19.5,83,0.00,,,0.22,WUHU216HW,2013-01-14 03:25:00,
2013-01-13 22:30:00,26.1,21.6,30.23,WNW,293,20.4,20.4,83,0.00,,,0.22,WUHU216HW,2013-01-14 03:30:00,
2013-01-13 22:35:00,26.1,21.1,30.23,WNW,293,14.3,20.4,81,0.00,,,0.22,WUHU216HW,2013-01-14 03:35:00,
2013-01-13 22:40:00,26.1,21.1,30.23,WNW,293,15.0,19.2,81,0.00,,,0.22,WUHU216HW,2013-01-14 03:40:00,
2013-01-13 22:45:00,25.9,21.2,30.24,WNW,293,14.1,17.9,82,0.00,,,0.22,WUHU216HW,2013-01-14 03:45:00,
2013-01-13 22:50:00,25.9,21.2,30.24,WNW,293,17.7,18.1,82,0.00,,,0.22,WUHU216HW,2013-01-14 03:50:00,
2013-01-13 22:55:00,25.9,21.2,30.23,WNW,293,17.9,19.2,82,0.00,,,0.22,WUHU216HW,2013-01-14 03:55:00,
2013-01-13 23:00:00,25.7,20.7,30.22,WNW,293,16.3,19.2,81,0.00,,,0.22,WUHU216HW,2013-01-14 04:00:00,
2013-01-13 23:05:00,25.7,21.0,30.23,WNW,293,14.3,19.2,82,0.00,,,0.22,WUHU216HW,2013-01-14 04:05:00,
2013-01-13 23:10:00,25.7,21.0,30.23,WNW,293,13.4,19.2,82,0.00,,,0.22,WUHU216HW,2013-01-14 04:10:00,
2013-01-13 23:15:00,25.6,20.8,30.23,WNW,293,14.3,19.9,82,0.00,,,0.22,WUHU216HW,2013-01-14 04:15:00,
2013-01-13 23:20:00,25.7,21.0,30.24,WNW,293,14.8,19.9,82,0.00,,,0.22,WUHU216HW,2013-01-14 04:20:00,
2013-01-13 23:25:00,25.6,20.8,30.24,WNW,293,14.5,22.6,82,0.00,,,0.22,WUHU216HW,2013-01-14 04:25:00,
2013-01-13 23:30:00,25.6,20.8,30.24,WNW,293,15.2,22.6,82,0.00,,,0.22,WUHU216HW,2013-01-14 04:30:00,
2013-01-13 23:35:00,25.6,20.5,30.24,WNW,293,15.7,17.7,81,0.00,,,0.22,WUHU216HW,2013-01-14 04:35:00,
2013-01-13 23:40:00,25.6,20.5,30.25,WNW,293,19.0,19.5,81,0.00,,,0.22,WUHU216HW,2013-01-14 04:40:00,
2013-01-13 23:45:00,25.6,20.8,30.25,WNW,293,17.2,19.5,82,0.00,,,0.22,WUHU216HW,2013-01-14 04:45:00,
2013-01-13 23:50:00,25.6,20.8,30.25,WNW,293,12.8,17.4,82,0.00,,,0.22,WUHU216HW,2013-01-14 04:50:00,
2013-01-13 23:55:00,25.4,20.3,30.25,WNW,293,18.6,18.6,81,0.00,,,0.22,WUHU216HW,2013-01-14 04:55:00,